Flag for Switzerland Weather past 2 weeks in Vevey, Vaud, Switzerland

Now
61 °F

Cool.


Feels Like: 61 °F
Forecast: 58 / 67 °F
Wind: 2 mph from Northwest

Location: Aigle

Current Time: Sep 2, 2015 at 3:22:52 AM

Latest Report: Sep 2, 2015 at 1:00 AM


Visibility: N/A

Pressure: 30.06 "Hg

Humidity: 97%

Dew point: 60 °F

Location of VeveyLocation

Historic Weather in Vevey — Graph

°F

Vevey temperature yesterday

Maximum temperature yesterday: 74 °F (at 12:00 PM)
Minimum temperature yesterday: 61 °F (at 9:00 PM)
Average temperature yesterday: 67 °F

Past Weeks' High & Low Weather Summary

 TemperatureHumidityPressure
High83 °F (Aug 28, 5:00 PM)98% (Aug 18, 4:00 AM)30.24 "Hg (Aug 18, 4:00 AM)
Low51 °F (Aug 20, 7:00 AM)37% (Aug 20, 6:00 PM)29.70 "Hg (Aug 24, 5:00 AM)
Average66 °F76%30.02 "Hg
* Reported Aug 18 1:00 AM — Sep 2 1:00 AM, Vevey, Weather by CustomWeather, © 2015

Note: Actual official high and low records may vary slightly from our data, if they occured in-between our weather recording intervals... More about our weather records

Advertising

Vevey weather history for previous 24 hours

 ConditionsComfort  
Time TempWeatherWind HumidityBarometerVisibility
1:00 AM
Wed, Sep 2
61 °FCool.2 mph97%30.06 "HgN/A
12:00 AM61 °FCool.No wind97%30.06 "HgN/A
10:00 PM
Tue, Sep 1
62 °FCool.3 mph93%30.06 "HgN/A
9:00 PM61 °FCool.9 mph96%30.06 "HgN/A
8:00 PM63 °FHeavy rain. Overcast.3 mph94%30.04 "Hg2 mi
7:00 PM65 °FMild.9 mph80%30.02 "HgN/A
6:00 PM65 °FMild.10 mph85%30.01 "HgN/A
5:00 PM68 °FOvercast.13 mph74%29.98 "Hg6 mi
4:00 PM68 °FMild.12 mph76%29.96 "HgN/A
3:00 PM69 °FMild.15 mph71%29.94 "HgN/A
2:00 PM72 °FOvercast.9 mph67%29.90 "Hg14 mi
1:00 PM73 °FMild.7 mph64%29.90 "HgN/A
12:00 PM74 °FMild.1 mph67%29.89 "HgN/A
11:00 AM73 °FOvercast.2 mph70%29.90 "Hg14 mi
10:00 AM71 °FMild.3 mph70%29.88 "HgN/A
9:00 AM71 °FMild.8 mph73%29.86 "HgN/A
8:00 AM67 °FOvercast.1 mph74%29.84 "Hg14 mi
7:00 AM66 °FMild.6 mph78%29.83 "HgN/A
6:00 AM62 °FCool.2 mph95%29.87 "HgN/A
4:00 AM65 °FMild.3 mph85%29.90 "HgN/A
3:00 AM65 °FMild.1 mph87%29.90 "HgN/A
Weather by CustomWeather, © 2015

See weather overviewHow to use our weather pages